EARTHCARE (59908 NORAD) Tracking and Keplerian Element Data

This shows tracking and keplerian element data for the satellite.

Feedback or suggestion? Click here.




ElementValue
Catalog59908
NameEARTHCARE
Epoch Orbit99
Epoch Day156.34315197
Epoch Year2024
RAAN284.4592
Inclination96.9775
Eccentricity0.0004666
Argument of Perigee120.6387
Mean Anonmoly239.5329
Mean Motion15.5531759
Decay Rate0.00019747
L11 59908U 24101A 24156.34315197 .00019747 00000+0 29214-3 0 9998
L22 59908 96.9775 284.4592 0004666 120.6387 239.5329 15.55317590 991



Live tracking and technical data element details for EARTHCARE (NORAD 59908). EARTHCARE can be tracked NOW for your location showing map with azimuth and elevation plus other details from your city location.







IsCatalogInMostPopularTable: catalog: 59908, numindb: 5
Update: records affected: 1



GetName: 59908 EARTHCARE

Hit Count: updated at: Tue, 16 Jul 2024 04:07:44 GMT